AirNav   Get $300 off a Bose A20
 
 438 users online  

KGKY Arlington Municipal Airport
Arlington, Texas, USA

GOING TO ARLINGTON?


FAA INFORMATION EFFECTIVE 23 MAY 2019

Location

FAA Identifier: GKY
Lat/Long: 32-39-49.9000N / 097-05-39.4000W
32-39.831667N / 097-05.656667W
32.6638611 / -97.0942778
(estimated)
Elevation: 628.2 ft. / 191.5 m (surveyed)
Variation: 06E (2000)
From city: 4 miles S of ARLINGTON, TX
Time zone: UTC -5 (UTC -6 during Standard Time)
Zip code: 76018

Airport Operations

Airport use: Open to the public
Activation date: 05/1971
Control tower: yes
ARTCC: FORT WORTH CENTER
FSS: FORT WORTH FLIGHT SERVICE STATION
NOTAMs facility: GKY (NOTAM-D service available)
Attendance: CONTINUOUS
Wind indicator: lighted
Segmented circle: yes
Lights: MIRL RY 16/34 PRESET MED INTST; HIGHER INTST BY ATCT REQ. WHEN ATCT CLSD ACTVT MALSR RY 34 - CTAF. PAPI RYS 16 & 34 OPER CONTINUOUSLY.
Beacon: white-green (lighted land airport)
Operates sunset to sunrise.

Airport Communications

CTAF: 128.625
WX ASOS: 127.375 (817-557-0251)
ARLINGTON GROUND: 121.875 [0700-2100]
ARLINGTON TOWER: 128.625 [0700-2100]
REGIONAL APPROACH: 135.975
REGIONAL DEPARTURE: 135.975
CLEARANCE DELIVERY: 121.875 118.85 ;WHEN GKY ATCT CLSD
DODJE STAR: 125.2 125.9
KNEAD STAR: 135.975
LIKES STAR: 125.8 ;(SOUTH) 135.975 ;(NORTH)
MOTZA STAR: 118.1 ;(SOUTH) 125.8 ;(NORTH)
REEKO STAR: 125.2
SANGR STAR: 124.3
SASIE STAR: 124.3
SLUGG STAR: 125.8 ;(SOUTH) 135.975 ;(NORTH)
SWVAY STAR: 135.975
WESAT STAR: 118.1 ;(SOUTH) 125.8 ;(NORTH)
WX AWOS-3P at GPM (3 nm NE): 118.475 (972-606-1433)
WX ASOS at RBD (11 nm E): PHONE 214-330-5317
WX AWOS-3 at FWS (12 nm SW): 120.025 (817-426-4172)
WX ASOS at DFW (14 nm N): PHONE 972-615-2608
WX AWOS-3 at JWY (15 nm SE): 119.575 (972-937-4747)
WX AWOS-3 at 49T (16 nm NE): 135.425 (214-670-1243)
WX ASOS at DAL (16 nm NE): PHONE 214-353-1551
WX ASOS at FTW (16 nm NW): PHONE 817-740-3346
WX AWOS-3 at LNC (20 nm E): 118.975 (972-227-0471)

Nearby radio navigation aids

VOR radial/distance  VOR name  Freq  Var
TTTr186/12.6MAVERICK VOR/DME113.1006E
FUZr156/14.2RANGER VORTAC115.7006E
CVEr209/16.6COWBOY VOR/DME116.2006E

 
NDB name  Hdg/Dist  Freq  Var  ID
MESQUITE250/29.824803EPQF .--. --.- ..-.

Airport Services

Fuel available: 100LL JET-A
SELF SERVE FUEL WITH MAJOR CREDIT CARD.
Parking: hangars and tiedowns
Airframe service: MAJOR
Powerplant service: MAJOR
Bottled oxygen: LOW
Bulk oxygen: NONE

Runway Information

Runway 16/34

Dimensions: 6080 x 100 ft. / 1853 x 30 m
Surface: concrete, in good condition
Weight bearing capacity: 
Single wheel: 60.0
Runway edge lights: medium intensity
RUNWAY 16  RUNWAY 34
Latitude: 32-40.322683N32-39.341885N
Longitude: 097-05.779817W097-05.533875W
Elevation: 628.2 ft.596.9 ft.
Traffic pattern: leftleft
Runway heading: 162 magnetic, 168 true342 magnetic, 348 true
Markings: nonprecision, in good conditionprecision, in good condition
Visual slope indicator: 4-light PAPI on left (3.00 degrees glide path)4-light PAPI on left (3.00 degrees glide path)
PAPI UNUSABLE BYD 8 DEGS RIGHT OF RY CNTRLN.
Approach lights: MALSR: 1,400 foot medium intensity approach lighting system with runway alignment indicator lights
Runway end identifier lights: yesno
Touchdown point: yes, no lightsyes, no lights
Instrument approach: ILS/DME

Airport Ownership and Management from official FAA records

Ownership: Publicly-owned
Owner: CITY OF ARLINGTON
PO BOX 90231
ARLINGTON, TX 76004-3231
Phone 817-459-6100
Manager: KAREN VAN WINKLE
5000 S. COLLINS
ARLINGTON, TX 76004-3231
Phone 817-459-5570
SUITE 100

Airport Operational Statistics

Aircraft based on the field: 191
Single engine airplanes: 157
Multi engine airplanes: 18
Jet airplanes: 7
Helicopters: 9
    
Aircraft operations: avg 242/day *
54% transient general aviation
44% local general aviation
1% air taxi
<1% military
<1% commercial
* for 12-month period ending 31 December 2015

Additional Remarks

EXTENSIVE HELICOPTER TFC WEST OF RWY.
HEL TEST FAC AT ARPT, 1975 OPNS 15200, MOSTLY FM PVT HELIPAD ADJOINING LNDG AREA.

Instrument Procedures

NOTE: All procedures below are presented as PDF files. If you need a reader for these files, you should download the free Adobe Reader.

NOT FOR NAVIGATION. Please procure official charts for flight.
FAA instrument procedures published for use from 23 May 2019 at 0901Z to 20 June 2019 at 0900Z.

 
STARs - Standard Terminal Arrivals
DODJE FIVE   2 pages: [1] [2] (750KB)
KNEAD SEVEN   2 pages: [1] [2] (446KB)
MOTZA EIGHT   2 pages: [1] [2] (503KB)
REEKO THREE (RNAV)   download (198KB)
SASIE FIVE   2 pages: [1] [2] (489KB)
SWVAY FOUR (RNAV)   download (226KB)
TRUUK TWO (RNAV)   download (197KB)
WESAT TWO (RNAV)   download (192KB)
 
IAPs - Instrument Approach Procedures
ILS OR LOC/DME RWY 34 **CHANGED**   download (258KB)
RNAV (GPS) RWY 34 **CHANGED**   download (210KB)
VOR/DME RWY 34 **CHANGED**   download (194KB)
NOTE: Special Alternate Minimums apply   download (16KB)
 
Departure Procedures
DALLAS FOUR   2 pages: [1] [2] (530KB)
GARLAND SIX   2 pages: [1] [2] (359KB)
HUBBARD NINE   2 pages: [1] [2] (347KB)
JOE POOL NINE   2 pages: [1] [2] (542KB)
KINGDOM FOUR   2 pages: [1] [2] (380KB)
KUSSO FIVE (RNAV)   2 pages: [1] [2] (301KB)
SWABR FIVE (RNAV)   2 pages: [1] [2] (296KB)
TEXOMA FIVE   2 pages: [1] [2] (508KB)
WORTH ONE   2 pages: [1] [2] (525KB)
NOTE: Special Take-Off Minimums/Departure Procedures apply   download

Other nearby airports with instrument procedures:

KGPM - Grand Prairie Municipal Airport (3 nm NE)
KRBD - Dallas Executive Airport (11 nm E)
KFWS - Fort Worth Spinks Airport (12 nm SW)
KDFW - Dallas-Fort Worth International Airport (14 nm N)
KJWY - Mid-Way Regional Airport (15 nm SE)
KDAL - Dallas Love Field Airport (16 nm NE)
KFTW - Fort Worth Meacham International Airport (16 nm NW)
KNFW - Fort Worth Naval Air Station JRB (Carswell Field) Airport (19 nm W)
KLNC - Lancaster Regional Airport (20 nm E)
 
Loc | Ops | Rwys | IFR | FBO | Links
Com | Nav | Svcs | Stats | Notes
Area around KGKY (Arlington Municipal Airport)
 
Road maps at: MapQuest Bing Google
 
Aerial photo
WARNING: Photo may not be current or correct
Aerial photo of KGKY (Arlington Municipal Airport)
Photo by Jeff Law
Photo taken 19-Feb-2013
looking northwest.

Do you have a better or more recent aerial photo of Arlington Municipal Airport that you would like to share? If so, please send us your photo.

 
Sectional chart

 
Airport diagram
CAUTION: Diagram may not be current
Diagram of KGKY (Arlington Municipal Airport)
 
Airport distance calculator
Flying to Arlington Municipal Airport? Find the distance to fly.

From to KGKY

Sunrise and sunset
Times for 27-May-2019
 Local
(UTC-5)
 Zulu
(UTC)
Morning civil twilight05:5610:56
Sunrise06:2411:24
Sunset20:2701:27
Evening civil twilight20:5501:55

Current date and time
Zulu (UTC)  27-May-2019 10:40:16
Local (UTC-5)  27-May-2019 05:40:16
 
METAR
KGKY 271012Z AUTO 15012KT 10SM SCT022 23/19 A2991 RMK AO2 T02330194
KGPM 
3nm NE 
271015Z AUTO 16009KT 10SM CLR 23/19 A2993 RMK AO2 T02290187
KRBD 
12nm E 
270953Z AUTO 16013KT 10SM CLR 23/19 A2991 RMK AO2 SLP120 T02280194
KFWS 
12nm SW 
271015Z AUTO 17010G17KT 10SM SCT022 23/19 A2993 RMK AO2 T02280193
KDFW 
15nm N 
271022Z 16012KT 10SM BKN020 BKN180 OVC300 23/19 A2990 RMK AO2 T02280189 $
KJWY 
15nm SE 
271015Z AUTO 16010KT 10SM SCT021 22/20 A2995 RMK AO2 T02170200
KDAL 
17nm NE 
270953Z 18012G20KT 10SM SCT021 BKN190 BKN300 24/19 A2992 RMK AO2 SLP123 T02440194
KFTW 
17nm NW 
270953Z 17016G24KT 10SM FEW022 23/19 A2989 RMK AO2 SLP112 T02280189
KNFW 
19nm W 
270952Z AUTO 17012G20KT 10SM CLR 24/19 A2990 RMK AO2 SLP109 T02390189 $
KLNC 
20nm E 
271015Z AUTO 15011G14KT 10SM SCT021 23/20 A2994 RMK AO2 T02260198
TAF
KGKY 270905Z 2709/2806 16015G25KT P6SM SCT025 BKN300 FM271000 17014KT P6SM BKN025 TEMPO 2711/2714 BKN015 FM271500 17018G28KT P6SM SCT040 FM280200 16014KT P6SM BKN300
KDFW 
15nm N 
270905Z 2709/2812 16015G25KT P6SM SCT025 BKN300 FM271000 17014KT P6SM BKN025 TEMPO 2711/2714 BKN015 FM271500 17018G28KT P6SM SCT040 FM280200 16014KT P6SM BKN300 FM281000 17016KT P6SM BKN025
KDAL 
17nm NE 
270905Z 2709/2806 16015G25KT P6SM SCT025 BKN300 FM271000 17014KT P6SM BKN025 TEMPO 2711/2714 BKN015 FM271500 17018G28KT P6SM SCT040 FM280200 16014KT P6SM BKN300
KFTW 
17nm NW 
270905Z 2709/2806 16015G25KT P6SM SCT025 BKN300 FM271000 17014KT P6SM BKN025 TEMPO 2711/2714 BKN015 FM271500 17018G28KT P6SM SCT040 FM280200 16014KT P6SM BKN300
KNFW 
19nm W 
2707/2807 17015G22KT 9999 SCT020 QNH2969INS TEMPO 2710/2716 BKN020 AUTOMATED SENSOR METWATCH 2707 TIL 2811 T22/2711Z T32/2720Z FN00205
NOTAMs
Click for the latest NOTAMs
NOTAMs are issued by the DoD/FAA and will open in a separate window not controlled by AirNav.

 

 
 

FBO, Fuel Providers, and Aircraft Ground Support

  
 Business Name 
 
 Contact 
 
 Services / Description 
 
Fuel Prices
 
Comments
  
Harrison Aviation ASRI 131.325
817-557-0350
toll-free 1-888-383-5354
[web site]
[email]
Arlington is home to the new Dallas Cowboy Stadium and Arlington Municipal Airport is located in the heart of the DFW metroplex with quick access to I-20 and Hwy 360. Dallas, Fort Worth, and Arlington are just minutes away.

Come for your business meeting and then stay for the entertainment (Dallas Cowboys, Texas Rangers, Lone Star Park, Nokia Theater)
More info and photos of Harrison Aviation
 
NATA Safety 1st   U.S. Government Contract Fuel   CAA Preferred FBO   Crew cars   National Business Aviation Association  
 
Shell
100LL Jet A
FS $4.79 $4.99 
SS $4.29 --- 
 Updated 22-May-2019
 
   5 read write
Alternatives at nearby airports
IMPORTANT: Note that the FBOs below are NOT at KGKY but at other nearby airports. Do not expect services from these FBOs to be available at KGKY.
Located at KRBD
Ambassador Jet Center
ASRI 131.90
214-623-8800
214-251-6512
[web site]
[email]
At KRBD (Dallas Executive Airport), 11 miles E

Premier FBO situated minutes south of downtown Dallas - convenient to Dallas Market Center, Dallas Convention Center, American Airline Arena, premier hotels and cultural district as well as Cowboys Stadium, Rangers Ballpark in Arlington, Six Flags, and Lone Star Park. Unmatched personal service provided by our dedicated customer service team.
More info and photos of Ambassador Jet Center (KRBD)
Located at KRBD
Avfuel
100LL Jet A
FS $4.95 $4.75 
GUARANTEED
AirBossMEMBER
PRICING
FS $4.85 $4.60 
 
   35 read write
FS=Full service
SS=Self service
Update Fuel Prices
 

Aviation Businesses, Services, and Facilities

  
 Business Name 
 
 Contact 
 
 Services / Description 
 
Distance
 
Comments
  
Airline Transport Professionals - ATP Flight School 904-595-7950
[web site]
[email]
ATP provides professional, accelerated, airline-oriented flight training at 42 flight schools nationwide. ATP's Airline Career Pilot Program prepares pilots for airline careers from zero time to 1,500 hours, with CFI jobs and airline employment. Fly with the nation's largest flight school and gain access to more aircraft, locations, and job placements than any flight school, academy, or aviation university can offer.
More info and photos of Airline Transport Professionals - ATP Flight School
on airport  
   1 read write
 Van Bortel Aircraft
817-468-7788
toll-free 1-800-759-4295
[web site]
[email]
Aircraft maintenance, Avionics sales and service, Aircraft modifications, Aircraft parts, Aviation accessories, Aircraft sales / leasing / brokerage
 
Cessna Service Center   Garmin  
 
More info about Van Bortel Aircraft
on airport  
   write
 

Would you like to see your business listed on this page?

 If your business provides an interesting product or service to pilots, flight crews, aircraft, or users of the Arlington Municipal Airport, you should consider listing it here.  To start the listing process, click on the button below
 
Add a business
 

Other Pages about Arlington Municipal Airport

www.arlingtontx.gov/aviation
 
Update a link
 
Copyright © AirNav, LLC. All rights reserved. Privacy Policy  Contact